Tracking 31027 objects as of 19-Jul-2025
HD Live streaming from Space Station
objects crossing your sky now

DELTA 1 DEB

Track DELTA 1 DEB now!
10-day predictions


NORAD ID: 12168
Int'l Code: 1978-026H
Perigee: 795.7 km
Apogee: 1,049.4 km
Inclination: 98.7 °
Period: 103.3 minutes
Semi major axis: 7293 km
RCS: 0.1563 m2 (medium)
Launch date: March 5, 1978
Source: United States (US)
Launch site: AIR FORCE WESTERN TEST RANGE (AFWTR)

Note: This is SATELLITE DEBRIS
Your satellite tracking list
SL-14 DEB
Track 1 satellite(s)




NASA's NSSDC Master Catalog

Two Line Element Set (TLE):
1 12168U 78026H   25199.45358271  .00000263  00000-0  20360-3 0  9997
2 12168  98.7119  27.9223 0173928   8.5979 351.8096 13.93773332254260
Source of the keplerian elements: AFSPC